EW7665 Weather Reports


Display with metric or nautical units.
time (UTC)temp
F
wind
direction
speed
MPH
gust
MPH
rain 1hr
in
rain 24hr
in
rain mn
in
humidity
%
barometer
mb
20260503011600 63 0 0.0 0.0 0.00 0.00 0.00 33 1017.1
20260503010055 67 0 0.0 0.0 0.00 0.00 0.00 27 1017.2
20260503004551 67 151 1.0 1.0 0.00 0.00 0.00 27 1017.2
20260503003058 67 247 3.0 4.0 0.00 0.00 0.00 27 1017.1
20260503001549 68 219 1.0 3.0 0.00 0.00 0.00 24 1017.2
20260502234600 69 223 3.0 3.0 0.00 0.00 0.00 24 1017.5
20260502233050 69 205 1.0 2.0 0.00 0.00 0.00 27 1017.5
20260502231551 69 351 1.0 3.0 0.00 0.00 0.00 27 1017.6
20260502230052 68 251 0.0 2.0 0.00 0.00 0.00 27 1017.7
20260502224550 69 276 1.0 2.0 0.00 0.00 0.00 26 1017.7
20260502223048 69 237 1.0 4.0 0.00 0.00 0.00 26 1017.8
20260502221549 68 252 0.0 2.0 0.00 0.00 0.00 26 1017.8
20260502220059 67 235 1.0 2.0 0.00 0.00 0.00 28 1018.0
20260502214550 67 303 3.0 3.0 0.00 0.00 0.00 28 1018.2
20260502213053 67 271 0.0 2.0 0.00 0.00 0.00 28 1018.4
20260502211553 66 303 1.0 3.0 0.00 0.00 0.00 29 1018.7
20260502210108 66 271 3.0 3.0 0.00 0.00 0.00 29 1018.9
20260502204550 66 40 2.0 4.0 0.00 0.00 0.00 29 1019.1
20260502203055 66 298 3.0 3.0 0.00 0.00 0.00 30 1019.3
20260502201552 66 326 1.0 3.0 0.00 0.00 0.00 30 1019.5
20260502200115 66 317 2.0 4.0 0.00 0.00 0.00 30 1019.8
20260502194544 64 283 1.0 4.0 0.00 0.00 0.00 32 1019.9
20260502193053 63 163 1.0 2.0 0.00 0.00 0.00 32 1020.0
20260502191559 63 288 7.0 7.0 0.00 0.00 0.00 32 1020.2
20260502190056 63 155 1.0 4.0 0.00 0.00 0.00 30 1020.5
20260502184550 63 268 1.0 4.0 0.00 0.00 0.00 30 1020.8
20260502183050 63 207 6.0 6.0 0.00 0.00 0.00 30 1020.9
20260502181548 61 158 3.0 4.0 0.00 0.00 0.00 33 1021.1
20260502170105 59 283 4.0 7.0 0.00 0.00 0.00 32 1021.9
20260502163057 59 59 5.0 5.0 0.00 0.00 0.00 32 1022.1
20260502161603 59 55 2.0 3.0 0.00 0.00 0.00 38 1022.1
20260502151605 57 288 1.0 2.0 0.00 0.00 0.00 47 1022.2
20260502140123 49 292 1.0 1.0 0.00 0.00 0.00 72 1022.3
20260502123051 39 242 1.0 1.0 0.00 0.00 0.00 89 1021.8
20260502121551 34 0 0.0 0.0 0.00 0.00 0.00 89 1021.6
20260502114553 33 0 0.0 0.0 0.00 0.00 0.00 90 1021.4
20260502113057 34 0 0.0 0.0 0.00 0.00 0.00 90 1021.3
20260502111555 34 0 0.0 0.0 0.00 0.00 0.00 90 1021.2
20260502104556 34 0 0.0 0.0 0.00 0.00 0.00 89 1021.3
20260502103104 34 0 0.0 0.0 0.00 0.00 0.00 86 1021.2
20260502101601 35 0 0.0 0.0 0.00 0.00 0.00 86 1021.0
20260502090112 36 0 0.0 0.0 0.00 0.00 0.00 80 1020.8
20260502070105 41 0 0.0 0.0 0.00 0.00 0.00 66 1020.5
20260502064601 43 0 0.0 0.0 0.00 0.00 0.00 63 1020.4
20260502063051 43 0 0.0 0.0 0.00 0.00 0.00 63 1020.4
20260502061549 44 0 0.0 0.0 0.00 0.00 0.00 63 1020.4
20260502060051 45 0 0.0 0.0 0.00 0.00 0.00 54 1020.3
20260502054553 47 0 0.0 0.0 0.00 0.00 0.00 54 1020.2
20260502053053 47 0 0.0 1.0 0.00 0.00 0.00 54 1019.9
20260502051554 47 86 0.0 2.0 0.00 0.00 0.00 51 1019.9
20260502050056 48 87 2.0 4.0 0.00 0.00 0.00 51 1019.8
20260502044554 48 0 0.0 0.0 0.00 0.00 0.00 51 1019.8
20260502043052 49 91 1.0 1.0 0.00 0.00 0.00 49 1019.6
20260502041601 50 68 1.0 2.0 0.00 0.00 0.00 49 1019.5
20260502040056 51 88 0.0 1.0 0.00 0.00 0.00 49 1019.4
20260502034555 51 90 1.0 2.0 0.00 0.00 0.00 49 1019.3
20260502033051 52 72 1.0 4.0 0.00 0.00 0.00 49 1019.3
20260502031558 53 93 2.0 3.0 0.00 0.00 0.00 50 1019.2
20260502030057 53 96 0.0 0.0 0.00 0.00 0.00 50 1019.0
20260502024607 53 88 1.0 1.0 0.00 0.00 0.00 50 1018.7
20260502023106 54 0 0.0 1.0 0.00 0.00 0.00 45 1018.4
20260502021546 55 0 1.0 2.0 0.00 0.00 0.00 45 1018.1
20260502020053 55 323 0.0 1.0 0.00 0.00 0.00 45 1017.9
20260502014549 56 331 0.0 2.0 0.00 0.00 0.00 38 1017.5
20260502013056 58 35 0.0 0.0 0.00 0.00 0.00 38 1017.2